CW3077 Weather Reports


Display with metric or nautical units.
time (UTC)temp
F
wind
direction
speed
MPH
gust
MPH
rain 1hr
in
rain 24hr
in
rain mn
in
humidity
%
barometer
mb
20260906034536 85 135 3.0 8.0 0.00 0.00 0.00 64 1014.5
20260906034036 86 113 4.0 10.0 0.00 0.00 0.00 64 1014.5
20260906033516 86 113 5.0 12.0 0.00 0.00 0.00 63 1014.5
20260906033016 86 113 4.0 9.0 0.00 0.00 0.00 63 1014.6
20260906032516 86 90 4.0 8.0 0.00 0.00 0.00 62 1014.5
20260906032016 87 90 4.0 10.0 0.00 0.00 0.00 61 1014.2
20260906031516 87 90 7.0 11.0 0.00 0.00 0.00 61 1014.2
20260906031016 87 90 5.0 15.0 0.00 0.00 0.00 61 1014.3
20260906030516 87 90 5.0 12.0 0.00 0.00 0.00 60 1014.2
20260906030016 88 90 5.0 12.0 0.00 0.00 0.00 60 1014.1
20260906025516 88 90 8.0 18.0 0.00 0.00 0.00 59 1013.9
20260906025016 88 90 4.0 9.0 0.00 0.00 0.00 58 1013.8
20260906024516 88 90 4.0 8.0 0.00 0.00 0.00 58 1013.7
20260906024016 88 90 5.0 10.0 0.00 0.00 0.00 57 1013.6
20260906023516 88 90 5.0 11.0 0.00 0.00 0.00 57 1013.6
20260906023036 89 90 6.0 10.0 0.00 0.00 0.00 56 1013.3
20260906022516 89 90 5.0 11.0 0.00 0.00 0.00 56 1013.3
20260906022016 89 90 6.0 12.0 0.00 0.00 0.00 55 1013.2
20260906021516 89 90 5.0 12.0 0.00 0.00 0.00 54 1013.1
20260906021016 89 90 5.0 10.0 0.00 0.00 0.00 54 1013.0
20260906020516 89 90 6.0 13.0 0.00 0.00 0.00 53 1012.9
20260906020056 90 90 5.0 10.0 0.00 0.00 0.00 53 1012.8
20260906015516 90 90 4.0 11.0 0.00 0.00 0.00 53 1012.5
20260906015016 90 90 5.0 11.0 0.00 0.00 0.00 53 1012.6
20260906014516 90 90 6.0 16.0 0.00 0.00 0.00 53 1012.7
20260906014015 91 90 6.0 13.0 0.00 0.00 0.00 52 1012.6
20260906013516 91 90 6.0 15.0 0.00 0.00 0.00 52 1012.7
20260906013016 91 90 8.0 17.0 0.00 0.00 0.00 52 1012.6
20260906012516 91 90 8.0 16.0 0.00 0.00 0.00 51 1012.4
20260906012036 92 90 8.0 16.0 0.00 0.00 0.00 51 1012.4
20260906011536 92 90 8.0 15.0 0.00 0.00 0.00 50 1012.3
20260906011015 92 90 11.0 18.0 0.00 0.00 0.00 50 1012.2
20260906010556 93 90 8.0 18.0 0.00 0.00 0.00 49 1012.3
20260906010016 93 90 8.0 20.0 0.00 0.00 0.00 49 1012.3
20260906005515 93 90 5.0 15.0 0.00 0.00 0.00 49 1012.2
20260906005018 94 90 7.0 15.0 0.00 0.00 0.00 48 1012.2
20260906004515 94 90 5.0 11.0 0.00 0.00 0.00 48 1012.2
20260906004015 94 113 5.0 11.0 0.00 0.00 0.00 46 1012.2
20260906003515 94 135 5.0 10.0 0.00 0.00 0.00 46 1012.2
20260906003016 95 113 4.0 11.0 0.00 0.00 0.00 46 1012.1
20260906002516 95 135 4.0 9.0 0.00 0.00 0.00 45 1012.2
20260906002016 95 113 4.0 13.0 0.00 0.00 0.00 45 1012.1
20260906001515 95 135 6.0 13.0 0.00 0.00 0.00 45 1012.0
20260906001056 96 135 4.0 10.0 0.00 0.00 0.00 44 1012.1
20260906000516 96 90 6.0 13.0 0.00 0.00 0.00 44 1012.1
20260906000015 96 90 5.0 13.0 0.00 0.00 0.00 44 1012.1
20260905235515 96 68 7.0 12.0 0.00 0.00 0.00 44 1012.0
20260905235035 96 113 6.0 11.0 0.00 0.00 0.00 44 1011.9
20260905234515 96 113 4.0 9.0 0.00 0.00 0.00 43 1012.0
20260905234016 96 113 4.0 11.0 0.00 0.00 0.00 42 1011.9
20260905233515 96 158 1.0 4.0 0.00 0.00 0.00 43 1011.9
20260905233015 96 135 2.0 7.0 0.00 0.00 0.00 41 1011.9
20260905232555 97 113 4.0 10.0 0.00 0.00 0.00 41 1012.0
20260905232015 96 45 3.0 8.0 0.00 0.00 0.00 41 1011.9
20260905231515 96 45 4.0 10.0 0.00 0.00 0.00 40 1011.9
20260905231036 97 135 3.0 8.0 0.00 0.00 0.00 41 1011.9
20260905230515 97 90 6.0 12.0 0.00 0.00 0.00 40 1012.1
20260905230015 97 113 4.0 8.0 0.00 0.00 0.00 40 1012.0
20260905225535 97 90 3.0 8.0 0.00 0.00 0.00 41 1012.1
20260905225015 97 158 2.0 6.0 0.00 0.00 0.00 41 1012.1
20260905224515 97 135 3.0 8.0 0.00 0.00 0.00 40 1012.0
20260905224015 98 113 5.0 13.0 0.00 0.00 0.00 40 1012.0
20260905223515 98 68 5.0 9.0 0.00 0.00 0.00 40 1012.1
20260905223015 98 113 5.0 12.0 0.00 0.00 0.00 39 1012.1
20260905222515 98 135 2.0 6.0 0.00 0.00 0.00 40 1012.0
20260905222015 98 135 3.0 8.0 0.00 0.00 0.00 40 1012.2
20260905221515 99 158 4.0 9.0 0.00 0.00 0.00 39 1012.2
20260905221015 98 135 1.0 4.0 0.00 0.00 0.00 40 1012.2
20260905220515 99 135 2.0 10.0 0.00 0.00 0.00 39 1012.3
20260905220015 98 203 1.0 3.0 0.00 0.00 0.00 40 1012.3
20260905215515 98 203 2.0 5.0 0.00 0.00 0.00 39 1012.2
20260905215015 98 23 2.0 5.0 0.00 0.00 0.00 40 1012.3
20260905214517 98 23 3.0 8.0 0.00 0.00 0.00 38 1012.3
20260905214015 98 45 4.0 8.0 0.00 0.00 0.00 38 1012.2
20260905213515 98 135 3.0 10.0 0.00 0.00 0.00 39 1012.3
20260905213016 98 135 2.0 5.0 0.00 0.00 0.00 39 1012.5
20260905212555 97 90 1.0 3.0 0.00 0.00 0.00 41 1012.4
20260905212017 98 90 2.0 5.0 0.00 0.00 0.00 40 1012.5
20260905211535 97 135 3.0 8.0 0.00 0.00 0.00 41 1012.6
20260905211015 98 90 3.0 9.0 0.00 0.00 0.00 41 1012.7
20260905210516 98 90 5.0 9.0 0.00 0.00 0.00 40 1012.7
20260905210015 97 135 3.0 8.0 0.00 0.00 0.00 42 1012.7
20260905205515 98 113 3.0 8.0 0.00 0.00 0.00 41 1012.8
20260905205015 99 113 2.0 5.0 0.00 0.00 0.00 39 1012.9
20260905204515 99 90 4.0 9.0 0.00 0.00 0.00 40 1013.0
20260905204015 101 135 3.0 8.0 0.00 0.00 0.00 38 1013.1
20260905203515 99 248 1.0 3.0 0.00 0.00 0.00 41 1013.2
20260905203015 99 248 2.0 7.0 0.00 0.00 0.00 41 1013.3
20260905202515 99 180 2.0 6.0 0.00 0.00 0.00 39 1013.4
20260905202015 99 225 3.0 10.0 0.00 0.00 0.00 40 1013.3
20260905201515 99 203 4.0 9.0 0.00 0.00 0.00 40 1013.4
20260905201015 99 203 2.0 8.0 0.00 0.00 0.00 41 1013.5
20260905200515 100 68 4.0 10.0 0.00 0.00 0.00 40 1013.6
20260905200015 99 135 3.0 7.0 0.00 0.00 0.00 41 1013.8
20260905195515 99 135 2.0 7.0 0.00 0.00 0.00 39 1013.9
20260905195015 100 135 3.0 10.0 0.00 0.00 0.00 40 1014.0
20260905194515 98 225 2.0 5.0 0.00 0.00 0.00 40 1014.0
20260905194015 99 225 3.0 10.0 0.00 0.00 0.00 41 1014.1
20260905193515 99 135 3.0 11.0 0.00 0.00 0.00 41 1014.2
20260905193015 99 135 5.0 12.0 0.00 0.00 0.00 41 1014.2
20260905192515 98 135 1.0 4.0 0.00 0.00 0.00 43 1014.3
20260905192015 97 135 2.0 4.0 0.00 0.00 0.00 42 1014.4
20260905191515 97 135 2.0 7.0 0.00 0.00 0.00 40 1014.4
20260905191035 99 90 4.0 10.0 0.00 0.00 0.00 40 1014.6
20260905190555 99 158 3.0 11.0 0.00 0.00 0.00 38 1014.6
20260905190037 99 158 3.0 10.0 0.00 0.00 0.00 39 1014.7
20260905185537 98 158 3.0 9.0 0.00 0.00 0.00 41 1014.6
20260905185037 99 68 3.0 8.0 0.00 0.00 0.00 41 1014.9
20260905184517 97 68 3.0 7.0 0.00 0.00 0.00 42 1014.9
20260905184039 97 158 4.0 8.0 0.00 0.00 0.00 41 1015.0
20260905183517 97 45 4.0 10.0 0.00 0.00 0.00 42 1015.1
20260905183017 97 158 4.0 9.0 0.00 0.00 0.00 43 1015.1
20260905182517 98 158 5.0 10.0 0.00 0.00 0.00 43 1015.1
20260905182017 98 158 4.0 9.0 0.00 0.00 0.00 42 1015.3
20260905181537 97 158 5.0 13.0 0.00 0.00 0.00 45 1015.2
20260905181017 96 135 4.0 11.0 0.00 0.00 0.00 47 1015.3
20260905180517 93 270 3.0 7.0 0.00 0.00 0.00 50 1015.5
20260905180015 93 180 2.0 10.0 0.00 0.00 0.00 50 1015.7
20260905175537 94 180 4.0 11.0 0.00 0.00 0.00 49 1015.8
20260905175018 94 225 3.0 8.0 0.00 0.00 0.00 50 1015.8
20260905174517 94 180 3.0 7.0 0.00 0.00 0.00 49 1015.9
20260905174017 94 203 4.0 10.0 0.00 0.00 0.00 54 1016.0
20260905173517 93 248 3.0 7.0 0.00 0.00 0.00 53 1015.8
20260905173017 91 248 3.0 7.0 0.00 0.00 0.00 54 1016.0
20260905172517 94 180 3.0 7.0 0.00 0.00 0.00 50 1016.1
20260905172017 95 90 5.0 9.0 0.00 0.00 0.00 49 1016.2
20260905171517 93 225 3.0 8.0 0.00 0.00 0.00 52 1016.1
20260905171017 93 180 3.0 6.0 0.00 0.00 0.00 54 1016.1
20260905170537 92 270 2.0 6.0 0.00 0.00 0.00 54 1016.2
20260905170017 94 158 3.0 9.0 0.00 0.00 0.00 53 1016.3
20260905165535 93 135 2.0 6.0 0.00 0.00 0.00 54 1016.3
20260905165016 93 203 3.0 9.0 0.00 0.00 0.00 54 1016.4
20260905164517 92 158 4.0 10.0 0.00 0.00 0.00 57 1016.5
20260905164019 92 203 3.0 8.0 0.00 0.00 0.00 54 1016.5
20260905163517 92 180 4.0 10.0 0.00 0.00 0.00 55 1016.5
20260905163016 92 248 4.0 11.0 0.00 0.00 0.00 55 1016.4
20260905162537 92 158 3.0 10.0 0.00 0.00 0.00 56 1016.6
20260905162017 92 225 3.0 8.0 0.00 0.00 0.00 58 1016.3
20260905161517 91 158 3.0 8.0 0.00 0.00 0.00 58 1016.4
20260905161017 90 180 3.0 9.0 0.00 0.00 0.00 59 1016.3
20260905160517 90 225 4.0 10.0 0.00 0.00 0.00 60 1016.2
20260905160016 90 225 4.0 10.0 0.00 0.00 0.00 61 1016.2
20260905155516 89 270 4.0 9.0 0.00 0.00 0.00 59 1016.2
20260905155016 89 225 3.0 7.0 0.00 0.00 0.00 62 1016.3
20260905154516 89 180 4.0 9.0 0.00 0.00 0.00 61 1016.3
20260905154016 89 248 2.0 6.0 0.00 0.00 0.00 62 1016.3
20260905153538 89 225 4.0 9.0 0.00 0.00 0.00 63 1016.4
20260905153017 88 180 4.0 9.0 0.00 0.00 0.00 63 1016.3
20260905152517 88 225 3.0 8.0 0.00 0.00 0.00 66 1016.3
20260905152016 88 203 3.0 10.0 0.00 0.00 0.00 67 1016.2
20260905151516 87 225 4.0 8.0 0.00 0.00 0.00 66 1016.3
20260905151016 87 180 5.0 9.0 0.00 0.00 0.00 67 1016.3
20260905150517 86 203 3.0 8.0 0.00 0.00 0.00 68 1016.1
20260905150017 86 203 4.0 11.0 0.00 0.00 0.00 70 1016.3
20260905145516 85 270 3.0 8.0 0.00 0.00 0.00 72 1016.3
20260905145037 85 203 3.0 9.0 0.00 0.00 0.00 72 1016.3
20260905144516 85 225 3.0 9.0 0.00 0.00 0.00 72 1016.3
20260905144017 84 225 3.0 7.0 0.00 0.00 0.00 75 1016.3
20260905143516 84 225 3.0 7.0 0.00 0.00 0.00 77 1016.3
20260905143016 83 225 2.0 6.0 0.00 0.00 0.00 78 1016.3
20260905142517 83 180 3.0 8.0 0.00 0.00 0.00 79 1016.4
20260905142036 83 225 2.0 5.0 0.00 0.00 0.00 80 1016.3
20260905141516 82 225 3.0 8.0 0.00 0.00 0.00 80 1016.3
20260905141017 82 158 2.0 6.0 0.00 0.00 0.00 82 1016.3
20260905140518 82 203 2.0 4.0 0.00 0.00 0.00 83 1016.4
20260905140016 81 203 2.0 5.0 0.00 0.00 0.00 84 1016.2
20260905135536 81 158 2.0 8.0 0.00 0.00 0.00 85 1016.2
20260905135037 81 203 1.0 4.0 0.00 0.00 0.00 86 1016.2
20260905134557 80 203 2.0 4.0 0.00 0.00 0.00 87 1016.1
20260905134016 79 180 2.0 7.0 0.00 0.00 0.00 88 1015.9
20260905133516 79 203 1.0 5.0 0.00 0.00 0.00 89 1015.8
20260905133016 78 203 1.0 3.0 0.00 0.00 0.00 90 1015.8
20260905132516 78 203 1.0 3.0 0.00 0.00 0.00 90 1015.7
20260905132016 78 0.0 2.0 0.00 0.00 0.00 90 1015.6
20260905131516 78 203 1.0 2.0 0.00 0.00 0.00 91 1015.4
20260905131016 77 203 1.0 3.0 0.00 0.00 0.00 91 1015.5
20260905130516 77 203 1.0 3.0 0.00 0.00 0.00 91 1015.3
20260905130016 77 203 1.0 3.0 0.00 0.00 0.00 90 1015.3
20260905125516 77 203 1.0 3.0 0.00 0.00 0.00 90 1015.4
20260905125016 77 0.0 3.0 0.00 0.00 0.00 90 1015.2
20260905124516 77 0.0 2.0 0.00 0.00 0.00 90 1015.2
20260905124036 77 203 1.0 2.0 0.00 0.00 0.00 90 1015.2
20260905123516 77 203 1.0 2.0 0.00 0.00 0.00 90 1015.2
20260905123018 77 203 1.0 3.0 0.00 0.00 0.00 90 1015.2
20260905122516 77 203 1.0 3.0 0.00 0.00 0.00 90 1015.1
20260905122016 77 203 1.0 3.0 0.00 0.00 0.00 89 1015.1
20260905121519 77 203 1.0 3.0 0.00 0.00 0.00 89 1015.0
20260905121016 77 203 1.0 3.0 0.00 0.00 0.00 89 1014.9
20260905120516 77 203 1.0 2.0 0.00 0.00 0.00 89 1014.7
20260905120016 77 203 1.0 3.0 0.00 0.00 0.00 89 1014.6
20260905115516 77 203 1.0 3.0 0.00 0.00 0.00 89 1014.6
20260905115016 77 203 1.0 3.0 0.00 0.00 0.00 89 1014.8
20260905114516 77 0.0 2.0 0.00 0.00 0.00 89 1014.8
20260905114016 77 0.0 0.0 0.00 0.00 0.00 89 1014.9
20260905113516 77 0.0 0.0 0.00 0.00 0.00 88 1014.9
20260905113016 77 0.0 0.0 0.00 0.00 0.00 88 1014.8
20260905112516 77 0.0 2.0 0.00 0.00 0.00 87 1014.7
20260905112016 77 0.0 1.0 0.00 0.00 0.00 87 1014.7
20260905111516 77 203 1.0 2.0 0.00 0.00 0.00 87 1014.6
20260905111016 77 0.0 2.0 0.00 0.00 0.00 87 1014.5
20260905110516 77 0.0 0.0 0.00 0.00 0.00 86 1014.6
20260905110016 77 0.0 0.0 0.00 0.00 0.00 86 1014.6
20260905105536 77 0.0 0.0 0.00 0.00 0.00 86 1014.6
20260905105016 77 0.0 0.0 0.00 0.00 0.00 86 1014.7
20260905104516 77 0.0 0.0 0.00 0.00 0.00 86 1014.7
20260905104016 78 0.0 0.0 0.00 0.00 0.00 86 1014.6
20260905103516 78 0.0 0.0 0.00 0.00 0.00 86 1014.7
20260905103036 78 0.0 0.0 0.00 0.00 0.00 85 1014.7
20260905102536 78 0.0 0.0 0.00 0.00 0.00 85 1014.8
20260905102016 78 0.0 0.0 0.00 0.00 0.00 85 1014.7
20260905101516 78 0.0 0.0 0.00 0.00 0.00 86 1014.7
20260905101016 78 0.0 0.0 0.00 0.00 0.00 86 1014.7
20260905100516 78 0.0 0.0 0.00 0.00 0.00 86 1014.7
20260905100016 78 0.0 1.0 0.00 0.00 0.00 86 1014.8
20260905095516 78 203 1.0 4.0 0.00 0.00 0.00 86 1014.7
20260905094516 78 203 1.0 3.0 0.00 0.00 0.00 85 1014.6
20260905094036 79 203 1.0 2.0 0.00 0.00 0.00 85 1014.7
20260905093536 79 203 1.0 3.0 0.00 0.00 0.00 85 1014.6
20260905093016 79 203 2.0 4.0 0.00 0.00 0.00 85 1014.5
20260905092519 79 203 1.0 5.0 0.00 0.00 0.00 85 1014.6
20260905092016 79 203 1.0 4.0 0.00 0.00 0.00 84 1014.7
20260905091516 79 203 1.0 3.0 0.00 0.00 0.00 84 1014.8
20260905091016 79 0.0 4.0 0.00 0.00 0.00 84 1014.6
20260905090516 79 203 1.0 3.0 0.00 0.00 0.00 84 1014.8
20260905090056 79 203 1.0 3.0 0.00 0.00 0.00 84 1014.7
20260905085518 79 203 1.0 4.0 0.00 0.00 0.00 84 1014.7
20260905085016 79 203 1.0 5.0 0.00 0.00 0.00 84 1014.7
20260905084516 79 203 2.0 5.0 0.00 0.00 0.00 84 1014.7
20260905084016 79 203 2.0 5.0 0.00 0.00 0.00 84 1014.8
20260905083516 79 203 1.0 3.0 0.00 0.00 0.00 83 1014.7
20260905083015 79 203 1.0 3.0 0.00 0.00 0.00 83 1014.8
20260905082556 79 203 1.0 4.0 0.00 0.00 0.00 83 1014.7
20260905082016 79 203 1.0 5.0 0.00 0.00 0.00 82 1014.8
20260905081515 79 203 1.0 4.0 0.00 0.00 0.00 82 1014.7
20260905081016 80 203 1.0 3.0 0.00 0.00 0.00 82 1014.8
20260905080536 80 203 1.0 5.0 0.00 0.00 0.00 82 1014.9
20260905080016 80 203 1.0 3.0 0.00 0.00 0.00 81 1014.9
20260905075516 80 203 1.0 3.0 0.00 0.00 0.00 82 1014.8
20260905075036 80 203 2.0 5.0 0.00 0.00 0.00 81 1014.7
20260905074515 80 203 1.0 4.0 0.00 0.00 0.00 81 1014.7
20260905074015 80 203 1.0 4.0 0.00 0.00 0.00 80 1014.8
20260905073515 80 203 1.0 3.0 0.00 0.00 0.00 80 1014.7
20260905073016 80 203 1.0 3.0 0.00 0.00 0.00 80 1014.9
20260905072516 80 203 2.0 4.0 0.00 0.00 0.00 80 1014.9
20260905072015 80 203 2.0 4.0 0.00 0.00 0.00 79 1014.9
20260905071515 80 203 2.0 7.0 0.00 0.00 0.00 79 1015.1
20260905071015 80 180 2.0 7.0 0.00 0.00 0.00 79 1015.1
20260905070516 80 158 2.0 5.0 0.00 0.00 0.00 78 1015.1
20260905070015 81 180 2.0 7.0 0.00 0.00 0.00 78 1015.0
20260905065515 81 203 2.0 7.0 0.00 0.00 0.00 78 1015.1
20260905065015 81 203 1.0 5.0 0.00 0.00 0.00 77 1015.0
20260905064535 81 180 1.0 4.0 0.00 0.00 0.00 77 1015.0
20260905064015 81 203 1.0 5.0 0.00 0.00 0.00 77 1015.2
20260905063515 81 158 2.0 9.0 0.00 0.00 0.00 77 1015.2
20260905063016 81 158 2.0 8.0 0.00 0.00 0.00 76 1015.2
20260905062516 81 158 2.0 7.0 0.00 0.00 0.00 76 1015.4
20260905062037 81 158 1.0 6.0 0.00 0.00 0.00 75 1015.4
20260905061516 81 158 1.0 4.0 0.00 0.00 0.00 75 1015.3
20260905061015 81 158 1.0 4.0 0.00 0.00 0.00 74 1015.4
20260905060536 81 158 1.0 4.0 0.00 0.00 0.00 74 1015.4
20260905060015 81 158 1.0 3.0 0.00 0.00 0.00 74 1015.4
20260905055516 81 158 1.0 4.0 0.00 0.00 0.00 74 1015.3
20260905055015 82 158 1.0 4.0 0.00 0.00 0.00 74 1015.3
20260905054516 82 158 2.0 6.0 0.00 0.00 0.00 73 1015.4
20260905054015 82 158 3.0 8.0 0.00 0.00 0.00 73 1015.4
20260905053516 82 158 4.0 11.0 0.00 0.00 0.00 73 1015.3
20260905053015 82 180 3.0 9.0 0.00 0.00 0.00 72 1015.3
20260905052515 82 158 3.0 11.0 0.00 0.00 0.00 72 1015.4
20260905052016 82 158 3.0 11.0 0.00 0.00 0.00 72 1015.4
20260905051516 82 180 3.0 9.0 0.00 0.00 0.00 72 1015.5
20260905051015 82 158 4.0 10.0 0.00 0.00 0.00 71 1015.5
20260905050516 82 180 3.0 9.0 0.00 0.00 0.00 72 1015.5
20260905050015 82 158 2.0 8.0 0.00 0.00 0.00 72 1015.5
20260905045516 82 158 3.0 6.0 0.00 0.00 0.00 72 1015.5
20260905045016 82 158 4.0 10.0 0.00 0.00 0.00 72 1015.5
20260905044536 82 158 4.0 9.0 0.00 0.00 0.00 72 1015.5
20260905044016 82 158 3.0 9.0 0.00 0.00 0.00 72 1015.5
20260905043516 82 158 2.0 7.0 0.00 0.00 0.00 72 1015.5
20260905043016 82 158 2.0 5.0 0.00 0.00 0.00 72 1015.4
20260905042536 82 158 2.0 8.0 0.00 0.00 0.00 72 1015.4
20260905042016 82 135 3.0 8.0 0.00 0.00 0.00 72 1015.4
20260905041516 82 135 3.0 8.0 0.00 0.00 0.00 71 1015.5
20260905041016 82 135 3.0 8.0 0.00 0.00 0.00 71 1015.4
20260905040516 82 158 3.0 8.0 0.00 0.00 0.00 71 1015.3
20260905040016 82 135 2.0 8.0 0.00 0.00 0.00 71 1015.2
20260905035516 82 135 2.0 5.0 0.00 0.00 0.00 71 1015.1
20260905035016 83 158 2.0 7.0 0.00 0.00 0.00 71 1015.4